SCP
0 0 0 0 0 0 0 0 0 0 0 0 0 0 0 0 0 0 0 0 0 0 0 0 0 0 0 0 0 0 0 0 0 0 0 0 0 0
0 0 0 0 0 0 0 0 0 0 0 0 0 0 0 0 0 0 0 0 0 0 0 0 0 0 0 0 0 0 0 0 0 0 0 0 0 0
0 0 0 0 0 0 0 0 0 0 0 0 0 0 0 0 0 0 0 0 0 0 0 0 0 0 0 0 0 0 0 0 0 0 0 0 0 0
0 0 0 0 0 0 0 0 0 0 0 0 0 0 0 0 0 0 0 0 0 0 0 0 0 0 0 0 0 0 0 0 0 0 0 0 0 0
0 0 0 0 0 0 0 0 0 0 0 0 0 0 0 0 0 0 0 0 0 0 0 0 0 0 0 0 0 0 0 0 0 0 0 0 0 0
0 0 0 0 0 0 0 0 0 0 0 0 0 0 0 0 0 0 0 0 0 0 0 0 0 0 0 0 0 0 0 0 0 0 0 0 0 0
0 0 0 0 0 0 0 0 0 0 0 0 0 0 0 0 0 0 0 0 0 0 0 0 0 0 0 0 0 0 0 0 0 0 0 0 0 0
0 0 0 0 0 0 0 0 0 0 0 0 0 0 0 0 0 0 0 0 0 0 0 0 0 0 0 0 0 0 0 0 0 0 0 0 0 0
0 0 0 0 0 0 0 0 0 0 0 0 0 0 0 0 0 0 0 0 0 0 0 0 0 0 0 0 0 0 0 0 0 0 0 0 0 0
0 0 0 0 0 0 0 0 0 0 0 0 0 0 0 0 0 0 0 0 0 0 0 0 0 0 0 0 0 0 0 0 0 0 0 0 0 0
0 0 0 0 0 0 0 0 0 0 0 0 0 0 0 0 0 0 0 0 0 0 0 0 0 0 0 0 0 0 0 0 0 0 0 0 0 0
0 0 0 0 0 0 0 0 0 0 0 0 0 0 0 0 0 0 0 0 0 0 0 0 0 0 0 0 0 0 0 0 0 0 0 0 0 0
0 0 0 0 0 0 0 0 0 0 0 0 0 0 0 0 0 0 0 0 0 0 0 0 0 0 0 0 0 0 0 0 0 0 0 0 0 0
0 0 0 0 0 0 0 0 0 0 0 0 0 0 0 0 0 0 0 0 0 0 0 0 0 0 0 0 0 0 0 0 0 0 0 0 0 0
0 0 0 0 0 0 0 0 0 0 0 0 0 0 0 0 0 0 0 0 0 0 0 0 0 0 0 0 0 0 0 0 0 0 0 0 0 0
0 0 0 0 0 0 0 0 0 0 0 0 0 0 0 0 0 0 0 0 0 0 0 0 0 0 0 0 0 0 0 0 0 0 0 0 0 0
0 0 0 0 0 0 0 0 0 0 0 0 0 0 0 0 0 0 0 0 0 0 0 0 0 0 0 0 0 0 0 0 0 0 0 0 0 0
0 0 0 0 0 0 0 0 0 0 0 0 0 0 0 0 0 0 0 0 0 0 0 0 0 0 0 0 0 0 0 0 0 0 0 0 0 0
0 0 0 0 0 0 0 0 0 0 0 0 0 0 0 0 0 0 0 0 0 0 0 0 0 0 0 0 0 0 0 0 0 0 0 0 0 0
0 0 0 0 0 0 0 0 0 0 0 0 0 0 0 0 0 0 0 0 0 0 0 0 0 0 0 0 0 0 0 0 0 0 0 0 0 0
0 0 0 0 0 0 0 0 0 0 0 0 0 0 0 0 0 0 0 0 0 0 0 0 0 0 0 0 0 0 0 0 0 0 0 0 0 0
0 0 0 0 0 0 0 0 0 0 0 0 0 0 0 0 0 0 0 0 0 0 0 0 0 0 0 0 0 0 0 0 0 0 0 0 0 0
0 0 0 0 0 0 0 0 0 0 0 0 0 0 0 0 0 0 0 0 0 0 0 0 0 0 0 0 0 0 0 0 0 0 0 0 0 0
Wind_Speed
1 1 1 1 1 1 2 3 3 2 1 1 1 1 1 0 0 1 1 2 3 3 3 3 4 4 4 5 4 4 4 4 4 4 4 4 4 3
1 1 1 0 1 1 2 2 2 3 2 1 1 1 1 0 1 0 0 1 2 2 2 2 3 3 3 3 3 3 4 4 4 4 4 4 4 4
1 1 1 1 1 1 2 2 2 2 2 1 1 1 2 1 0 1 0 0 0 1 1 1 1 1 2 2 2 2 3 3 3 4 4 4 4 4
1 1 1 1 2 2 2 2 2 2 2 2 1 1 2 1 1 1 1 1 1 0 1 1 1 1 1 2 1 2 2 2 2 3 3 4 4 4
2 2 2 2 2 2 3 2 2 2 1 2 1 1 1 1 1 1 1 1 1 1 2 2 2 2 2 2 2 2 2 2 2 2 3 3 3 3
2 2 2 3 3 3 3 3 3 2 2 2 1 1 1 1 1 1 1 1 2 2 2 2 2 3 3 3 3 3 4 4 4 4 3 3 3 3
2 2 3 3 4 4 3 4 4 3 2 2 1 1 2 2 2 2 2 1 2 2 2 2 2 2 3 4 5 5 5 5 5 5 5 5 5 4
2 2 2 2 3 4 4 5 6 5 4 3 2 3 4 4 2 3 2 1 2 2 2 3 2 3 3 3 5 6 6 6 6 6 6 6 6 5
3 2 2 2 2 2 3 3 4 4 5 5 4 5 4 5 4 4 4 4 4 2 2 3 2 4 3 4 7 7 7 7 7 7 7 7 6 7
3 3 3 2 2 3 2 2 2 3 4 4 5 5 5 4 5 5 4 3 2 2 3 3 3 3 3 4 7 8 8 8 8 8 8 7 8 7
3 3 3 3 4 4 3 3 3 3 4 5 5 5 4 4 4 2 2 2 3 3 3 3 3 3 3 4 4 7 9 9 9 9 9 8 8 7
2 3 4 5 5 5 5 4 5 5 3 2 3 3 3 3 5 5 4 4 3 3 3 4 2 2 3 3 3 4 5 7 9 10 10 10 9 6
3 3 3 5 5 6 6 5 6 5 3 3 3 3 3 2 3 4 4 5 4 4 4 4 3 3 3 2 2 3 4 4 5 6 9 10 10 9
4 4 4 5 6 6 6 5 6 4 2 2 2 3 3 4 4 4 5 5 6 6 5 5 4 4 3 4 4 3 4 4 4 5 5 7 8 10
4 5 4 5 5 4 6 6 4 3 3 3 4 5 4 4 3 3 3 4 5 5 5 6 5 4 4 5 4 3 3 4 5 5 5 5 5 5
4 4 4 4 4 4 3 3 3 4 4 5 4 4 3 3 3 3 3 3 3 4 5 6 6 6 6 6 5 5 4 4 4 5 4 4 4 5
3 2 2 2 3 3 3 3 3 3 4 4 4 4 3 3 3 3 3 3 4 4 4 3 4 5 6 5 5 5 5 4 4 4 4 4 4 5
3 3 4 4 5 5 4 4 4 5 5 4 4 4 4 4 4 3 3 4 5 5 4 3 2 2 2 4 6 6 5 4 3 3 3 3 4 3
4 4 5 5 5 5 5 5 5 5 4 4 5 5 4 4 4 4 4 4 4 5 4 3 3 3 4 5 3 5 4 3 2 3 3 3 4 4
5 5 6 5 5 5 5 5 5 4 4 4 4 5 5 4 4 5 4 5 5 4 4 3 4 5 6 6 4 3 5 4 3 3 3 3 2 1
5 6 6 5 5 5 5 5 5 4 4 4 5 5 5 5 5 5 5 5 5 5 5 5 5 6 3 2 3 3 2 5 4 3 3 3 2 2
5 5 5 5 5 5 5 4 4 4 4 5 5 4 4 5 6 6 5 5 5 5 5 4 2 2 3 4 5 4 3 2 3 3 3 4 3 4
5 5 5 5 5 5 5 5 6 5 5 4 4 4 4 5 5 5 5 5 4 4 4 3 2 2 3 4 4 3 3 2 1 1 2 2 4 4
Wind_Direction
138 141 141 171 164 158 147 152 153 172 231 249 254 262 254 236 4 26 37 46 53 57 59 64 65 63 67 66 64 66 75 91 103 106 106 104 103 105
137 125 119 141 144 146 152 146 149 161 188 213 223 228 216 193 158 175 59 44 44 49 48 55 65 72 77 76 72 72 81 94 108 114 116 114 108 105
133 145 187 155 147 150 146 143 144 150 164 212 214 196 180 204 248 223 199 204 327 32 63 75 67 87 100 105 94 90 96 106 117 122 122 121 119 116
184 165 196 162 157 165 162 167 167 166 164 193 199 182 199 209 228 235 229 199 224 224 206 179 182 160 147 139 131 121 116 118 126 131 132 132 133 133
204 202 208 175 189 189 182 180 177 166 155 170 191 188 203 177 176 247 238 245 241 225 222 226 219 210 202 195 190 181 173 162 152 149 148 149 151 152
217 219 212 199 207 200 191 188 176 165 153 158 177 195 210 183 177 218 246 241 249 244 236 241 233 224 222 220 212 206 200 193 187 182 179 177 172 167
235 238 228 215 211 203 197 193 180 176 169 178 194 199 209 197 214 210 227 248 252 235 235 243 242 238 232 230 225 218 211 204 201 198 194 194 193 189
233 247 243 232 230 222 217 197 183 181 188 191 206 222 230 222 209 205 205 220 253 214 218 246 228 241 238 230 228 218 213 210 208 205 202 203 202 201
222 231 244 247 225 218 223 208 208 211 193 191 210 225 227 218 203 209 212 220 236 208 196 246 235 245 245 238 228 224 219 215 212 211 210 208 207 208
225 226 232 247 229 204 201 204 226 236 226 217 223 232 233 218 206 212 213 217 239 218 195 236 239 244 250 243 230 222 219 216 215 214 212 209 208 209
244 232 224 235 239 204 194 215 244 260 250 239 240 248 245 220 192 177 181 205 245 236 199 221 238 248 250 246 235 222 219 217 216 217 215 213 211 209
247 242 231 229 231 207 203 210 234 252 253 257 259 264 252 232 200 199 201 210 233 240 197 201 219 215 251 240 236 226 221 221 219 219 218 215 208 208
238 247 244 232 227 219 211 219 233 239 239 243 255 264 264 252 231 220 213 209 217 232 202 189 207 206 227 250 243 233 229 228 221 222 220 217 210 204
232 240 241 230 230 230 224 235 236 230 236 245 258 261 260 258 251 236 227 225 227 232 216 193 204 210 219 242 249 238 231 228 223 227 227 216 216 215
238 240 237 230 234 239 241 239 225 225 227 238 251 256 254 256 255 244 238 239 246 242 226 216 217 218 222 235 245 240 242 237 224 224 221 215 214 205
245 255 246 236 230 238 242 233 223 223 224 237 250 257 259 255 252 243 241 242 253 259 242 229 226 219 227 234 240 247 237 233 221 219 220 223 219 213
223 234 239 240 242 241 240 236 227 220 227 239 242 247 248 249 252 243 238 234 240 255 259 246 239 236 237 235 244 248 246 241 234 219 214 226 227 217
189 230 239 240 241 241 240 239 231 230 231 231 235 238 241 244 248 244 234 232 242 251 253 249 236 240 251 247 230 246 245 247 238 213 209 223 238 228
203 234 240 242 242 240 238 238 239 236 229 226 232 238 241 244 243 244 240 240 245 250 249 239 226 226 248 265 248 214 236 247 231 212 212 214 232 230
225 235 241 241 238 236 237 238 241 238 230 230 232 234 233 235 239 242 239 240 245 248 250 240 232 230 237 252 257 250 214 220 225 229 221 221 239 231
232 236 240 242 242 239 238 238 239 238 235 231 234 235 233 233 241 246 247 244 241 242 247 248 246 242 244 233 246 253 234 210 209 218 213 204 213 212
235 235 239 239 239 240 239 236 238 239 239 237 239 238 235 234 241 245 246 248 245 245 252 261 252 219 217 227 246 256 261 257 229 221 212 197 199 213
239 238 238 240 238 235 233 234 237 241 239 238 239 239 238 238 241 243 245 245 248 250 252 252 239 223 231 232 239 247 250 254 250 240 260 235 231 240